W4TTU-1 Weather Reports


Display with metric or nautical units.
time (UTC)temp
F
wind
direction
speed
MPH
gust
MPH
rain 1hr
in
rain 24hr
in
rain mn
in
humidity
%
barometer
mb
20260503051609 59 270 0.0 1.0 0.00 0.00 0.00 24 846.6
20260503050109 61 270 1.0 1.0 0.00 0.00 0.00 24 846.6
20260503044608 62 270 0.0 0.0 0.00 0.00 0.00 24 846.5
20260503043108 63 270 3.0 3.0 0.00 0.00 0.00 24 846.6
20260503041607 65 270 3.0 3.0 0.00 0.00 0.00 23 846.7
20260503040107 66 270 1.0 1.0 0.00 0.00 0.00 22 846.6
20260503034606 68 270 0.0 1.0 0.00 0.00 0.00 23 846.3
20260503033106 70 270 0.0 0.0 0.00 0.00 0.00 23 846.2
20260503031605 72 270 1.0 4.0 0.00 0.00 0.00 22 846.0
20260503030104 74 270 1.0 6.0 0.00 0.00 0.00 22 846.0
20260503024604 76 270 1.0 3.0 0.00 0.00 0.00 22 845.8
20260503023103 78 270 1.0 5.0 0.00 0.00 0.00 21 845.6
20260503021603 81 270 0.0 1.0 0.00 0.00 0.00 21 845.5
20260503014602 86 270 0.0 2.0 0.00 0.00 0.00 21 844.9
20260503013101 88 270 1.0 3.0 0.00 0.00 0.00 21 844.6
20260503011601 90 270 2.0 5.0 0.00 0.00 0.00 21 844.6
20260503004600 92 270 3.0 9.0 0.00 0.00 0.00 21 844.4
20260503003059 93 270 4.0 4.0 0.00 0.00 0.00 21 844.3
20260503001559 94 270 4.0 5.0 0.00 0.00 0.00 21 844.4
20260503000058 95 270 6.0 6.0 0.00 0.00 0.00 21 844.5
20260502234558 97 270 1.0 7.0 0.00 0.00 0.00 21 844.6
20260502233057 98 270 0.0 7.0 0.00 0.00 0.00 21 844.6
20260502231557 99 270 2.0 6.0 0.00 0.00 0.00 21 844.8
20260502230056 101 270 1.0 5.0 0.00 0.00 0.00 21 845.0
20260502224556 102 270 2.0 8.0 0.00 0.00 0.00 22 844.9
20260502223055 102 270 3.0 10.0 0.00 0.00 0.00 22 845.1
20260502221555 102 270 2.0 5.0 0.00 0.00 0.00 22 845.3
20260502220055 102 270 3.0 4.0 0.00 0.00 0.00 23 845.5
20260502214556 102 270 3.0 4.0 0.00 0.00 0.00 23 845.6
20260502213053 102 270 3.0 4.0 0.00 0.00 0.00 22 845.9
20260502211553 102 270 3.0 5.0 0.00 0.00 0.00 23 846.0
20260502210052 101 270 6.0 6.0 0.00 0.00 0.00 24 846.0
20260502204554 100 270 2.0 7.0 0.00 0.00 0.00 24 846.1
20260502203051 98 270 4.0 7.0 0.00 0.00 0.00 25 846.3
20260502201550 96 270 2.0 6.0 0.00 0.00 0.00 25 846.3
20260502200050 94 270 5.0 7.0 0.00 0.00 0.00 25 846.6
20260502194552 92 270 3.0 4.0 0.00 0.00 0.00 25 846.7
20260502193049 91 270 2.0 8.0 0.00 0.00 0.00 26 846.8
20260502191549 89 270 3.0 6.0 0.00 0.00 0.00 26 847.1
20260502190048 88 270 4.0 6.0 0.00 0.00 0.00 27 847.2
20260502184552 86 270 3.0 8.0 0.00 0.00 0.00 27 847.4
20260502183047 84 270 6.0 7.0 0.00 0.00 0.00 28 847.6
20260502181546 82 270 6.0 10.0 0.00 0.00 0.00 29 847.8
20260502163043 65 270 6.0 11.0 0.00 0.00 0.00 34 848.4
20260502161542 63 270 6.0 9.0 0.00 0.00 0.00 34 848.6
20260502151540 54 270 3.0 6.0 0.00 0.00 0.00 38 849.1
20260502123034 38 270 0.0 1.0 0.00 0.00 0.00 29 849.6
20260502121534 38 270 0.0 1.0 0.00 0.00 0.00 28 849.6
20260502114533 39 270 0.0 1.0 0.00 0.00 0.00 28 849.5
20260502113032 39 270 0.0 0.0 0.00 0.00 0.00 29 849.6
20260502111532 39 270 0.0 2.0 0.00 0.00 0.00 29 849.5
20260502110033 39 270 0.0 1.0 0.00 0.00 0.00 28 849.4
20260502104533 39 270 2.0 5.0 0.00 0.00 0.00 28 849.3
20260502103030 40 270 0.0 2.0 0.00 0.00 0.00 28 849.4
20260502070025 48 270 3.0 4.0 0.00 0.00 0.00 27 849.6
20260502064525 48 270 5.0 6.0 0.00 0.00 0.00 27 849.4
20260502063021 49 270 1.0 5.0 0.00 0.00 0.00 27 849.6
20260502061525 49 270 5.0 7.0 0.00 0.00 0.00 27 849.7
20260502060020 50 270 1.0 3.0 0.00 0.00 0.00 26 849.7
20260502054520 51 270 0.0 3.0 0.00 0.00 0.00 26 849.6
20260502053019 53 270 0.0 1.0 0.00 0.00 0.00 26 849.6